TimePST,TemperatureF,Dew PointF,Humidity,Sea Level PressureIn,VisibilityMPH,Wind Direction,Wind SpeedMPH,Gust SpeedMPH,PrecipitationIn,Events,Conditions,WindDirDegrees,DateUTC
12:53 AM,39.0,37.0,93,30.01,10.0,Calm,Calm,-,0.02,Rain,Light Rain,0,2013-02-08 08:53:00
1:16 AM,39.2,37.4,93,30.01,10.0,Calm,Calm,-,0.00,,Overcast,0,2013-02-08 09:16:00
1:53 AM,39.0,36.0,89,30.01,10.0,Calm,Calm,-,0.00,Rain,Light Rain,0,2013-02-08 09:53:00
2:53 AM,37.9,36.0,93,29.99,10.0,NW,3.5,-,0.00,,Overcast,310,2013-02-08 10:53:00
3:53 AM,37.9,35.1,89,29.99,10.0,Calm,Calm,-,N/A,,Overcast,0,2013-02-08 11:53:00
4:53 AM,35.1,33.1,92,29.99,9.0,Calm,Calm,-,N/A,,Clear,0,2013-02-08 12:53:00
5:14 AM,33.8,32.0,93,29.99,1.2,Calm,Calm,-,N/A,,Clear,0,2013-02-08 13:14:00
5:19 AM,33.8,32.0,93,29.99,0.2,Calm,Calm,-,N/A,Fog,Fog,0,2013-02-08 13:19:00
5:33 AM,33.8,32.0,93,29.99,0.2,WNW,3.5,-,N/A,Fog,Fog,300,2013-02-08 13:33:00
5:50 AM,33.8,32.0,93,29.99,0.5,Calm,Calm,-,N/A,Fog,Fog,0,2013-02-08 13:50:00
5:53 AM,34.0,32.0,92,30.00,0.2,Calm,Calm,-,N/A,Fog,Fog,0,2013-02-08 13:53:00
6:16 AM,33.8,32.0,93,30.00,0.5,WNW,3.5,-,N/A,Fog,Fog,300,2013-02-08 14:16:00
6:47 AM,33.8,32.0,93,30.01,1.0,Calm,Calm,-,N/A,,Clear,0,2013-02-08 14:47:00
6:53 AM,32.0,30.0,92,30.01,1.2,Calm,Calm,-,N/A,,Clear,0,2013-02-08 14:53:00
7:09 AM,32.0,30.2,93,30.01,2.0,NW,4.6,-,N/A,,Clear,320,2013-02-08 15:09:00
7:17 AM,33.8,30.2,87,30.01,9.0,NNW,4.6,-,N/A,,Clear,330,2013-02-08 15:17:00
7:53 AM,35.1,33.1,92,30.04,10.0,NW,4.6,-,N/A,,Clear,320,2013-02-08 15:53:00
8:53 AM,39.9,35.1,83,30.06,10.0,NNW,4.6,-,N/A,,Clear,340,2013-02-08 16:53:00
9:53 AM,46.9,36.0,66,30.06,10.0,North,9.2,-,N/A,,Clear,360,2013-02-08 17:53:00
10:53 AM,50.0,33.1,52,30.05,10.0,North,11.5,-,N/A,,Clear,360,2013-02-08 18:53:00
11:53 AM,52.0,28.0,40,30.04,10.0,NNE,13.8,-,N/A,,Clear,20,2013-02-08 19:53:00
12:53 PM,54.0,26.1,34,30.01,10.0,North,15.0,21.9,N/A,,Clear,10,2013-02-08 20:53:00
1:53 PM,55.0,24.1,30,29.99,10.0,North,8.1,-,N/A,,Clear,350,2013-02-08 21:53:00
2:53 PM,55.9,19.9,25,29.98,10.0,NNW,9.2,21.9,N/A,,Clear,340,2013-02-08 22:53:00
3:53 PM,55.9,19.0,24,29.98,10.0,North,15.0,19.6,N/A,,Clear,350,2013-02-08 23:53:00
4:53 PM,54.0,19.9,26,29.99,10.0,North,12.7,19.6,N/A,,Clear,350,2013-02-09 00:53:00
5:53 PM,52.0,21.0,30,30.00,10.0,North,10.4,-,N/A,,Clear,360,2013-02-09 01:53:00
6:53 PM,48.9,21.0,33,30.02,10.0,North,11.5,18.4,N/A,,Clear,350,2013-02-09 02:53:00
7:53 PM,48.9,21.9,35,30.04,10.0,NNW,8.1,-,N/A,,Clear,340,2013-02-09 03:53:00
8:53 PM,46.9,23.0,39,30.04,10.0,NW,6.9,-,N/A,,Clear,320,2013-02-09 04:53:00
9:53 PM,45.0,23.0,42,30.06,10.0,NNW,4.6,-,N/A,,Clear,330,2013-02-09 05:53:00
10:53 PM,44.1,23.0,43,30.06,10.0,North,9.2,-,N/A,,Clear,360,2013-02-09 06:53:00
11:53 PM,44.1,23.0,43,30.05,10.0,North,8.1,-,N/A,,Clear,350,2013-02-09 07:53:00